TimeEDT,TemperatureF,Dew PointF,Humidity,Sea Level PressureIn,VisibilityMPH,Wind Direction,Wind SpeedMPH,Gust SpeedMPH,PrecipitationIn,Events,Conditions,WindDirDegrees,DateUTC
12:54 AM,68.0,55.9,65,29.81,10.0,Variable,4.6,-,N/A,,Clear,0,2013-09-21 04:54:00
1:54 AM,66.9,55.9,68,29.80,10.0,Calm,Calm,-,N/A,,Clear,0,2013-09-21 05:54:00
2:54 AM,66.0,57.0,73,29.78,10.0,Variable,3.5,-,N/A,,Clear,0,2013-09-21 06:54:00
3:54 AM,66.0,57.0,73,29.77,10.0,Variable,4.6,-,N/A,,Mostly Cloudy,0,2013-09-21 07:54:00
4:54 AM,64.9,57.0,75,29.75,10.0,SE,5.8,-,N/A,,Overcast,130,2013-09-21 08:54:00
5:54 AM,64.9,57.0,75,29.74,10.0,SE,3.5,-,N/A,,Overcast,140,2013-09-21 09:54:00
6:54 AM,64.0,57.0,78,29.74,10.0,SE,5.8,-,N/A,,Mostly Cloudy,140,2013-09-21 10:54:00
7:54 AM,66.0,57.9,75,29.72,10.0,Variable,4.6,-,N/A,,Overcast,0,2013-09-21 11:54:00
8:54 AM,66.9,59.0,76,29.70,10.0,Variable,5.8,-,N/A,,Overcast,0,2013-09-21 12:54:00
9:54 AM,68.0,60.1,76,29.69,10.0,South,5.8,-,N/A,,Overcast,170,2013-09-21 13:54:00
10:54 AM,71.1,61.0,70,29.66,10.0,SSE,10.4,23.0,N/A,,Mostly Cloudy,160,2013-09-21 14:54:00
11:11 AM,71.6,60.8,69,29.66,10.0,South,11.5,24.2,N/A,,Overcast,170,2013-09-21 15:11:00
11:33 AM,71.6,60.8,69,29.66,10.0,South,16.1,25.3,N/A,,Overcast,170,2013-09-21 15:33:00
11:54 AM,70.0,60.1,71,29.65,10.0,South,15.0,24.2,N/A,,Overcast,170,2013-09-21 15:54:00
12:54 PM,69.1,61.0,75,29.63,10.0,South,9.2,18.4,0.02,,Overcast,170,2013-09-21 16:54:00
1:33 PM,69.8,60.8,73,29.63,10.0,South,11.5,23.0,N/A,,Overcast,190,2013-09-21 17:33:00
1:54 PM,69.1,60.1,73,29.62,10.0,South,10.4,19.6,N/A,,Overcast,180,2013-09-21 17:54:00
2:47 PM,64.4,60.8,88,29.64,2.5,West,12.7,-,0.03,Rain,Light Rain,270,2013-09-21 18:47:00
2:52 PM,62.6,60.8,94,29.64,3.0,West,10.4,-,0.05,Rain,Light Rain,270,2013-09-21 18:52:00
2:54 PM,63.0,61.0,93,29.64,2.5,West,10.4,-,0.06,Rain,Rain,270,2013-09-21 18:54:00
2:58 PM,62.6,60.8,94,29.64,1.8,West,11.5,-,0.02,Rain,Heavy Rain,280,2013-09-21 18:58:00
3:08 PM,62.6,60.8,94,29.64,2.0,West,9.2,-,0.05,Rain,Rain,260,2013-09-21 19:08:00
3:13 PM,62.6,60.8,94,29.64,3.0,West,8.1,-,0.07,Rain,Rain,280,2013-09-21 19:13:00
3:29 PM,62.6,60.8,94,29.64,5.0,WSW,6.9,-,0.09,Rain,Light Rain,250,2013-09-21 19:29:00
3:39 PM,62.6,60.8,94,29.64,2.5,West,8.1,-,0.11,Rain,Rain,280,2013-09-21 19:39:00
3:49 PM,62.6,60.8,94,29.64,3.0,WNW,10.4,-,0.13,Rain,Rain,290,2013-09-21 19:49:00
3:54 PM,62.1,60.1,93,29.64,4.0,West,6.9,-,0.13,Rain,Light Rain,280,2013-09-21 19:54:00
4:05 PM,62.6,60.8,94,29.65,3.0,West,6.9,-,0.02,Rain,Rain,270,2013-09-21 20:05:00
4:14 PM,62.6,60.8,94,29.64,3.0,WNW,6.9,-,0.03,Rain,Light Rain,290,2013-09-21 20:14:00
4:25 PM,62.6,60.8,94,29.64,5.0,West,5.8,-,0.04,Rain,Light Rain,270,2013-09-21 20:25:00
4:35 PM,62.6,60.8,94,29.64,3.0,West,4.6,-,0.05,Rain,Rain,270,2013-09-21 20:35:00
4:54 PM,62.1,59.0,90,29.64,2.5,WNW,8.1,18.4,0.10,Rain,Rain,290,2013-09-21 20:54:00
5:02 PM,62.6,59.0,88,29.64,5.0,WNW,9.2,-,0.00,Rain,Light Rain,290,2013-09-21 21:02:00
5:54 PM,61.0,59.0,93,29.65,2.5,WNW,6.9,-,0.08,Rain,Rain,290,2013-09-21 21:54:00
6:03 PM,60.8,59.0,94,29.66,2.5,WNW,5.8,-,0.01,Rain,Rain,290,2013-09-21 22:03:00
6:17 PM,60.8,57.2,88,29.65,3.0,West,4.6,-,0.03,Rain,Light Rain,280,2013-09-21 22:17:00
6:54 PM,60.1,57.9,93,29.65,5.0,SW,4.6,-,0.06,Rain,Light Rain,220,2013-09-21 22:54:00
7:37 PM,60.8,59.0,94,29.64,7.0,South,4.6,-,0.05,Rain,Light Rain,170,2013-09-21 23:37:00
7:54 PM,60.1,57.9,93,29.64,8.0,Variable,3.5,-,0.06,Rain,Light Rain,0,2013-09-21 23:54:00
8:54 PM,59.0,57.9,96,29.65,10.0,South,4.6,-,0.03,Rain,Light Rain,190,2013-09-22 00:54:00
9:20 PM,59.0,57.2,94,29.65,10.0,South,5.8,-,0.00,Rain,Light Rain,180,2013-09-22 01:20:00
9:29 PM,59.0,57.2,94,29.65,10.0,South,5.8,-,0.00,,Overcast,190,2013-09-22 01:29:00
9:54 PM,59.0,57.9,96,29.65,10.0,SSW,5.8,-,0.00,,Overcast,200,2013-09-22 01:54:00
10:35 PM,59.0,57.2,94,29.66,10.0,South,5.8,-,0.00,Rain,Light Rain,190,2013-09-22 02:35:00
10:54 PM,59.0,57.0,93,29.65,9.0,South,5.8,-,0.00,Rain,Light Rain,180,2013-09-22 02:54:00
11:18 PM,59.0,57.2,94,29.65,7.0,South,6.9,-,0.02,Rain,Light Rain,190,2013-09-22 03:18:00
11:37 PM,59.0,55.4,88,29.67,8.0,WNW,17.3,29.9,0.03,Rain,Light Rain,300,2013-09-22 03:37:00
11:50 PM,57.2,55.4,94,29.68,9.0,WNW,12.7,25.3,0.03,Rain,Light Rain,300,2013-09-22 03:50:00
11:54 PM,57.0,54.0,89,29.68,9.0,WNW,13.8,24.2,0.03,Rain,Light Rain,300,2013-09-22 03:54:00